| time (UTC) | temp F | wind direction | speed MPH | gust MPH | rain 1hr in | rain 24hr in | rain mn in | humidity % | barometer mb |
| 20260905203700 | 69 | 325 | 0.0 | 0.0 | 0.00 | 0.00 | 0.00 | 70 | 1018.2 |
| 20260905203155 | 70 | 1 | 0.0 | 0.0 | 0.00 | 0.00 | 0.00 | 68 | 1018.0 |
| 20260905202651 | 69 | 328 | 0.0 | 0.0 | 0.00 | 0.00 | 0.00 | 65 | 1018.3 |
| 20260905202146 | 70 | 219 | 4.0 | 5.0 | 0.00 | 0.00 | 0.00 | 65 | 1018.1 |
| 20260905201642 | 71 | 83 | 2.0 | 2.0 | 0.00 | 0.00 | 0.00 | 63 | 1018.2 |
| 20260905201136 | 72 | 265 | 2.0 | 3.0 | 0.00 | 0.00 | 0.00 | 63 | 1018.1 |
| 20260905200632 | 72 | 331 | 0.0 | 0.0 | 0.00 | 0.00 | 0.00 | 63 | 1018.2 |
| 20260905200127 | 72 | 295 | 0.0 | 0.0 | 0.00 | 0.00 | 0.00 | 63 | 1018.2 |
| 20260905195625 | 71 | 300 | 1.0 | 2.0 | 0.00 | 0.00 | 0.00 | 67 | 1018.3 |
| 20260905195121 | 71 | 309 | 0.0 | 1.0 | 0.00 | 0.00 | 0.00 | 68 | 1018.3 |
| 20260905194621 | 71 | 19 | 3.0 | 6.0 | 0.00 | 0.00 | 0.00 | 64 | 1018.2 |
| 20260905194120 | 71 | 313 | 2.0 | 3.0 | 0.00 | 0.00 | 0.00 | 65 | 1018.3 |
| 20260905193615 | 71 | 327 | 1.0 | 1.0 | 0.00 | 0.00 | 0.00 | 69 | 1018.3 |
| 20260905193110 | 70 | 325 | 1.0 | 2.0 | 0.00 | 0.00 | 0.00 | 66 | 1018.2 |
| 20260905192606 | 70 | 265 | 1.0 | 1.0 | 0.00 | 0.00 | 0.00 | 68 | 1018.5 |
| 20260905192102 | 70 | 2 | 5.0 | 7.0 | 0.00 | 0.00 | 0.00 | 66 | 1018.5 |
| 20260905191600 | 71 | 49 | 1.0 | 2.0 | 0.00 | 0.00 | 0.00 | 69 | 1018.7 |
| 20260905191059 | 70 | 69 | 2.0 | 2.0 | 0.00 | 0.00 | 0.00 | 68 | 1018.5 |
| 20260905190557 | 69 | 38 | 5.0 | 7.0 | 0.00 | 0.00 | 0.00 | 69 | 1018.6 |
| 20260905190056 | 69 | 214 | 2.0 | 2.0 | 0.00 | 0.00 | 0.00 | 69 | 1018.6 |
| 20260905185555 | 69 | 349 | 1.0 | 2.0 | 0.00 | 0.00 | 0.00 | 70 | 1018.5 |
| 20260905185050 | 68 | 291 | 0.0 | 0.0 | 0.00 | 0.00 | 0.00 | 73 | 1018.6 |
| 20260905184545 | 69 | 346 | 2.0 | 5.0 | 0.00 | 0.00 | 0.00 | 69 | 1018.4 |
| 20260905184044 | 69 | 15 | 0.0 | 1.0 | 0.00 | 0.00 | 0.00 | 70 | 1018.5 |
| 20260905183538 | 68 | 54 | 2.0 | 3.0 | 0.00 | 0.00 | 0.00 | 71 | 1018.7 |
| 20260905183033 | 69 | 7 | 0.0 | 1.0 | 0.00 | 0.00 | 0.00 | 71 | 1018.5 |
| 20260905182532 | 68 | 229 | 1.0 | 2.0 | 0.00 | 0.00 | 0.00 | 72 | 1018.7 |
| 20260905182027 | 68 | 8 | 4.0 | 5.0 | 0.00 | 0.00 | 0.00 | 70 | 1018.8 |
| 20260905181522 | 68 | 335 | 1.0 | 1.0 | 0.00 | 0.00 | 0.00 | 70 | 1018.8 |
| 20260905181021 | 68 | 244 | 1.0 | 1.0 | 0.00 | 0.00 | 0.00 | 73 | 1018.8 |
| 20260905180516 | 67 | 323 | 1.0 | 1.0 | 0.00 | 0.00 | 0.00 | 72 | 1019.1 |
| 20260905180012 | 68 | 7 | 1.0 | 1.0 | 0.00 | 0.00 | 0.00 | 75 | 1019.1 |
| 20260905175510 | 66 | 292 | 1.0 | 2.0 | 0.00 | 0.00 | 0.00 | 76 | 1019.5 |
| 20260905175007 | 67 | 345 | 0.0 | 0.0 | 0.00 | 0.00 | 0.00 | 76 | 1019.5 |
| 20260905174502 | 66 | 340 | 0.0 | 0.0 | 0.00 | 0.00 | 0.00 | 76 | 1019.4 |
| 20260905173957 | 66 | 341 | 1.0 | 2.0 | 0.00 | 0.00 | 0.00 | 74 | 1019.4 |
| 20260905173453 | 66 | 352 | 1.0 | 1.0 | 0.00 | 0.00 | 0.00 | 75 | 1019.3 |
| 20260905172949 | 66 | 351 | 1.0 | 2.0 | 0.00 | 0.00 | 0.00 | 80 | 1019.4 |
| 20260905172447 | 66 | 351 | 1.0 | 2.0 | 0.00 | 0.00 | 0.00 | 80 | 1019.5 |
| 20260905171942 | 65 | 28 | 0.0 | 0.0 | 0.00 | 0.00 | 0.00 | 77 | 1019.6 |
| 20260905171439 | 65 | 28 | 0.0 | 0.0 | 0.00 | 0.00 | 0.00 | 77 | 1019.7 |
| 20260905170935 | 65 | 8 | 0.0 | 0.0 | 0.00 | 0.00 | 0.00 | 78 | 1019.7 |
| 20260905170431 | 64 | 26 | 0.0 | 0.0 | 0.00 | 0.00 | 0.00 | 79 | 1019.7 |
| 20260905165930 | 64 | 357 | 0.0 | 0.0 | 0.00 | 0.00 | 0.00 | 80 | 1019.9 |
| 20260905165425 | 63 | 269 | 1.0 | 2.0 | 0.00 | 0.00 | 0.00 | 81 | 1019.7 |
| 20260905164921 | 63 | 31 | 1.0 | 1.0 | 0.00 | 0.00 | 0.00 | 82 | 1019.8 |
| 20260905164420 | 63 | 359 | 0.0 | 1.0 | 0.00 | 0.00 | 0.00 | 83 | 1019.8 |
| 20260905163915 | 63 | 22 | 0.0 | 0.0 | 0.00 | 0.00 | 0.00 | 85 | 1019.8 |
| 20260905163412 | 61 | 17 | 1.0 | 2.0 | 0.00 | 0.00 | 0.00 | 88 | 1019.7 |
| 20260905162908 | 61 | 17 | 1.0 | 2.0 | 0.00 | 0.00 | 0.00 | 88 | 1019.7 |
| 20260905162402 | 60 | 16 | 0.0 | 0.0 | 0.00 | 0.00 | 0.00 | 89 | 1019.7 |
| 20260905161857 | 60 | 16 | 0.0 | 0.0 | 0.00 | 0.00 | 0.00 | 89 | 1019.7 |
| 20260905161356 | 59 | 21 | 0.0 | 1.0 | 0.00 | 0.00 | 0.00 | 91 | 1020.0 |
| 20260905160854 | 59 | 33 | 0.0 | 0.0 | 0.00 | 0.00 | 0.00 | 91 | 1019.8 |
| 20260905160349 | 59 | 30 | 0.0 | 0.0 | 0.00 | 0.00 | 0.00 | 92 | 1019.9 |
| 20260905155843 | 58 | 19 | 0.0 | 0.0 | 0.00 | 0.00 | 0.00 | 93 | 1019.7 |
| 20260905155342 | 59 | 20 | 0.0 | 0.0 | 0.00 | 0.00 | 0.00 | 94 | 1019.8 |
| 20260905154837 | 58 | 8 | 0.0 | 0.0 | 0.00 | 0.00 | 0.00 | 94 | 1019.8 |
| 20260905154332 | 58 | 10 | 0.0 | 0.0 | 0.00 | 0.00 | 0.00 | 95 | 1019.9 |
| 20260905153827 | 57 | 3 | 0.0 | 0.0 | 0.00 | 0.00 | 0.00 | 99 | 1019.7 |
| 20260905153324 | 55 | 345 | 0.0 | 0.0 | 0.00 | 0.00 | 0.00 | 99 | 1019.6 |
| 20260905152823 | 55 | 355 | 0.0 | 0.0 | 0.00 | 0.00 | 0.00 | 99 | 1019.8 |
| 20260905152322 | 54 | 341 | 0.0 | 0.0 | 0.00 | 0.00 | 0.00 | 99 | 1019.7 |
| 20260905151818 | 54 | 337 | 0.0 | 0.0 | 0.00 | 0.00 | 0.00 | 99 | 1019.7 |
| 20260905151314 | 53 | 343 | 0.0 | 0.0 | 0.00 | 0.00 | 0.00 | 99 | 1019.6 |
| 20260905150814 | 53 | 343 | 0.0 | 0.0 | 0.00 | 0.00 | 0.00 | 99 | 1019.5 |
| 20260905150313 | 0 | 0.0 | 0.0 | 0.00 | 0.00 | 0.00 | 1019.5 | ||
| 20260905145810 | 53 | 330 | 0.0 | 0.0 | 0.00 | 0.00 | 0.00 | 99 | 1019.8 |
| 20260905145306 | 53 | 330 | 0.0 | 0.0 | 0.00 | 0.00 | 0.00 | 99 | 1019.5 |
| 20260905144804 | 0 | 0.0 | 0.0 | 0.00 | 0.00 | 0.00 | 1019.7 | ||
| 20260905144300 | 0 | 0.0 | 0.0 | 0.00 | 0.00 | 0.00 | 1019.6 | ||
| 20260905143758 | 0 | 0.0 | 0.0 | 0.00 | 0.00 | 0.00 | 1019.8 | ||
| 20260905143253 | 0 | 0.0 | 0.0 | 0.00 | 0.00 | 0.00 | 1019.7 | ||
| 20260905142751 | 0 | 0.0 | 0.0 | 0.00 | 0.00 | 0.00 | 1019.8 | ||
| 20260905142246 | 0 | 0.0 | 0.0 | 0.00 | 0.00 | 0.00 | 1019.7 | ||
| 20260905141742 | 0 | 0.0 | 0.0 | 0.00 | 0.00 | 0.00 | 1019.7 | ||
| 20260905141238 | 0 | 0.0 | 0.0 | 0.00 | 0.00 | 0.00 | 1019.8 | ||
| 20260905140733 | 0 | 0.0 | 0.0 | 0.00 | 0.00 | 0.00 | 1019.6 | ||
| 20260905140227 | 52 | 324 | 0.0 | 0.0 | 0.00 | 0.00 | 0.00 | 99 | 1019.4 |
| 20260905135726 | 52 | 324 | 0.0 | 0.0 | 0.00 | 0.00 | 0.00 | 99 | 1019.6 |
| 20260905135223 | 52 | 315 | 0.0 | 0.0 | 0.00 | 0.00 | 0.00 | 99 | 1019.4 |
| 20260905134722 | 52 | 315 | 0.0 | 0.0 | 0.00 | 0.00 | 0.00 | 99 | 1019.6 |
| 20260905134221 | 0 | 0.0 | 0.0 | 0.00 | 0.00 | 0.00 | 1019.6 | ||
| 20260905133716 | 0 | 0.0 | 0.0 | 0.00 | 0.00 | 0.00 | 1019.4 | ||
| 20260905133211 | 0 | 0.0 | 0.0 | 0.00 | 0.00 | 0.00 | 1019.4 | ||
| 20260905132710 | 52 | 307 | 0.0 | 0.0 | 0.00 | 0.00 | 0.00 | 99 | 1019.3 |
| 20260905132205 | 52 | 307 | 0.0 | 0.0 | 0.00 | 0.00 | 0.00 | 99 | 1019.5 |
| 20260905131700 | 0 | 0.0 | 0.0 | 0.00 | 0.00 | 0.00 | 1019.5 | ||
| 20260905131155 | 0 | 0.0 | 0.0 | 0.00 | 0.00 | 0.00 | 1019.3 | ||
| 20260905130650 | 0 | 0.0 | 0.0 | 0.00 | 0.00 | 0.00 | 1019.2 | ||
| 20260905130150 | 53 | 336 | 0.0 | 0.0 | 0.00 | 0.00 | 0.00 | 99 | 1019.3 |
| 20260905125644 | 53 | 336 | 0.0 | 0.0 | 0.00 | 0.00 | 0.00 | 99 | 1019.3 |
| 20260905125140 | 53 | 335 | 0.0 | 0.0 | 0.00 | 0.00 | 0.00 | 99 | 1019.2 |
| 20260905124636 | 53 | 325 | 0.0 | 0.0 | 0.00 | 0.00 | 0.00 | 99 | 1019.3 |
| 20260905124132 | 53 | 325 | 0.0 | 0.0 | 0.00 | 0.00 | 0.00 | 99 | 1019.1 |
| 20260905123627 | 53 | 336 | 0.0 | 0.0 | 0.00 | 0.00 | 0.00 | 99 | 1019.2 |
| 20260905123124 | 53 | 340 | 0.0 | 0.0 | 0.00 | 0.00 | 0.00 | 99 | 1019.1 |
| 20260905122618 | 53 | 340 | 0.0 | 0.0 | 0.00 | 0.00 | 0.00 | 99 | 1019.2 |
| 20260905122119 | 0 | 0.0 | 0.0 | 0.00 | 0.00 | 0.00 | 1019.2 | ||
| 20260905121613 | 53 | 338 | 0.0 | 0.0 | 0.00 | 0.00 | 0.00 | 99 | 1019.1 |
| 20260905121109 | 53 | 337 | 0.0 | 0.0 | 0.00 | 0.00 | 0.00 | 99 | 1019.1 |
| 20260905120608 | 53 | 337 | 0.0 | 0.0 | 0.00 | 0.00 | 0.00 | 99 | 1019.0 |
| 20260905115556 | 53 | 343 | 0.0 | 0.0 | 0.00 | 0.00 | 0.00 | 99 | 1018.9 |
| 20260905115051 | 53 | 332 | 0.0 | 0.0 | 0.00 | 0.00 | 0.00 | 99 | 1019.1 |
| 20260905114550 | 53 | 332 | 0.0 | 0.0 | 0.00 | 0.00 | 0.00 | 99 | 1019.1 |
| 20260905114049 | 53 | 330 | 0.0 | 0.0 | 0.00 | 0.00 | 0.00 | 99 | 1018.9 |
| 20260905113544 | 53 | 330 | 0.0 | 0.0 | 0.00 | 0.00 | 0.00 | 99 | 1018.9 |
| 20260905113040 | 53 | 331 | 0.0 | 0.0 | 0.00 | 0.00 | 0.00 | 99 | 1019.0 |
| 20260905112535 | 53 | 331 | 0.0 | 0.0 | 0.00 | 0.00 | 0.00 | 99 | 1019.2 |
| 20260905112030 | 53 | 342 | 0.0 | 0.0 | 0.00 | 0.00 | 0.00 | 99 | 1018.9 |
| 20260905111525 | 54 | 344 | 0.0 | 0.0 | 0.00 | 0.00 | 0.00 | 99 | 1019.0 |
| 20260905111024 | 0 | 0.0 | 0.0 | 0.00 | 0.00 | 0.00 | 1018.8 | ||
| 20260905110524 | 54 | 337 | 0.0 | 0.0 | 0.00 | 0.00 | 0.00 | 99 | 1018.9 |
| 20260905110019 | 54 | 337 | 0.0 | 0.0 | 0.00 | 0.00 | 0.00 | 99 | 1018.7 |
| 20260905105514 | 54 | 348 | 0.0 | 0.0 | 0.00 | 0.00 | 0.00 | 99 | 1018.9 |
| 20260905105013 | 54 | 120 | 2.0 | 3.0 | 0.00 | 0.00 | 0.00 | 99 | 1018.7 |
| 20260905104509 | 54 | 339 | 0.0 | 0.0 | 0.00 | 0.00 | 0.00 | 99 | 1018.9 |
| 20260905104008 | 54 | 339 | 0.0 | 0.0 | 0.00 | 0.00 | 0.00 | 99 | 1018.6 |
| 20260905103503 | 54 | 339 | 0.0 | 0.0 | 0.00 | 0.00 | 0.00 | 99 | 1018.8 |
| 20260905103000 | 54 | 339 | 0.0 | 0.0 | 0.00 | 0.00 | 0.00 | 99 | 1018.8 |
| 20260905102455 | 54 | 339 | 0.0 | 0.0 | 0.00 | 0.00 | 0.00 | 99 | 1018.8 |
| 20260905101951 | 54 | 0 | 0.0 | 0.0 | 0.00 | 0.00 | 0.00 | 99 | 1018.7 |
| 20260905101449 | 54 | 220 | 1.0 | 1.0 | 0.00 | 0.00 | 0.00 | 99 | 1018.8 |
| 20260905100948 | 54 | 290 | 0.0 | 1.0 | 0.00 | 0.00 | 0.00 | 99 | 1018.7 |
| 20260905100444 | 54 | 290 | 0.0 | 1.0 | 0.00 | 0.00 | 0.00 | 99 | 1018.7 |
| 20260905095944 | 54 | 0 | 0.0 | 0.0 | 0.00 | 0.00 | 0.00 | 99 | 1018.6 |
| 20260905095444 | 54 | 344 | 0.0 | 0.0 | 0.00 | 0.00 | 0.00 | 99 | 1018.6 |
| 20260905094939 | 54 | 344 | 0.0 | 0.0 | 0.00 | 0.00 | 0.00 | 99 | 1018.9 |
| 20260905094435 | 54 | 344 | 0.0 | 0.0 | 0.00 | 0.00 | 0.00 | 99 | 1018.8 |
| 20260905093933 | 54 | 344 | 0.0 | 0.0 | 0.00 | 0.00 | 0.00 | 99 | 1018.5 |
| 20260905093429 | 54 | 344 | 0.0 | 0.0 | 0.00 | 0.00 | 0.00 | 99 | 1018.6 |
| 20260905092925 | 54 | 344 | 0.0 | 0.0 | 0.00 | 0.00 | 0.00 | 99 | 1018.7 |
| 20260905092419 | 54 | 344 | 0.0 | 0.0 | 0.00 | 0.00 | 0.00 | 99 | 1018.7 |
| 20260905091914 | 54 | 344 | 0.0 | 0.0 | 0.00 | 0.00 | 0.00 | 99 | 1018.7 |
| 20260905091409 | 54 | 345 | 0.0 | 0.0 | 0.00 | 0.00 | 0.00 | 99 | 1018.5 |
| 20260905090908 | 54 | 346 | 0.0 | 0.0 | 0.00 | 0.00 | 0.00 | 99 | 1018.7 |
| 20260905090404 | 54 | 322 | 0.0 | 0.0 | 0.00 | 0.00 | 0.00 | 99 | 1018.7 |
| 20260905085903 | 54 | 321 | 0.0 | 0.0 | 0.00 | 0.00 | 0.00 | 99 | 1018.4 |
| 20260905085403 | 54 | 327 | 0.0 | 0.0 | 0.00 | 0.00 | 0.00 | 99 | 1018.5 |
| 20260905084859 | 54 | 307 | 0.0 | 0.0 | 0.00 | 0.00 | 0.00 | 99 | 1018.6 |
| 20260905084357 | 54 | 334 | 0.0 | 0.0 | 0.00 | 0.00 | 0.00 | 99 | 1018.5 |
| 20260905083853 | 54 | 334 | 0.0 | 0.0 | 0.00 | 0.00 | 0.00 | 99 | 1018.5 |
| 20260905083348 | 55 | 292 | 0.0 | 1.0 | 0.00 | 0.00 | 0.00 | 99 | 1018.3 |
| 20260905082844 | 55 | 196 | 3.0 | 3.0 | 0.00 | 0.00 | 0.00 | 99 | 1018.5 |
| 20260905082340 | 54 | 10 | 0.0 | 0.0 | 0.00 | 0.00 | 0.00 | 99 | 1018.3 |
| 20260905081835 | 54 | 330 | 0.0 | 0.0 | 0.00 | 0.00 | 0.00 | 99 | 1018.3 |
| 20260905081329 | 54 | 330 | 0.0 | 0.0 | 0.00 | 0.00 | 0.00 | 99 | 1018.1 |
| 20260905080829 | 54 | 325 | 0.0 | 0.0 | 0.00 | 0.00 | 0.00 | 99 | 1018.5 |
| 20260905080324 | 55 | 331 | 0.0 | 0.0 | 0.00 | 0.00 | 0.00 | 99 | 1018.3 |
| 20260905075822 | 55 | 323 | 0.0 | 0.0 | 0.00 | 0.00 | 0.00 | 99 | 1018.4 |
| 20260905075322 | 55 | 334 | 0.0 | 0.0 | 0.00 | 0.00 | 0.00 | 99 | 1018.3 |
| 20260905074821 | 55 | 356 | 0.0 | 0.0 | 0.00 | 0.00 | 0.00 | 99 | 1018.2 |
| 20260905074317 | 55 | 330 | 0.0 | 0.0 | 0.00 | 0.00 | 0.00 | 99 | 1018.1 |
| 20260905073812 | 55 | 22 | 1.0 | 1.0 | 0.00 | 0.00 | 0.00 | 99 | 1018.3 |
| 20260905073307 | 55 | 346 | 0.0 | 0.0 | 0.00 | 0.00 | 0.00 | 99 | 1018.5 |
| 20260905072802 | 55 | 334 | 0.0 | 0.0 | 0.00 | 0.00 | 0.00 | 99 | 1018.5 |
| 20260905072257 | 55 | 337 | 0.0 | 0.0 | 0.00 | 0.00 | 0.00 | 99 | 1018.4 |
| 20260905071754 | 55 | 328 | 0.0 | 0.0 | 0.00 | 0.00 | 0.00 | 99 | 1018.4 |
| 20260905071249 | 55 | 328 | 0.0 | 0.0 | 0.00 | 0.00 | 0.00 | 99 | 1018.2 |
| 20260905070744 | 55 | 337 | 0.0 | 0.0 | 0.00 | 0.00 | 0.00 | 99 | 1018.4 |
| 20260905070240 | 55 | 329 | 0.0 | 0.0 | 0.00 | 0.00 | 0.00 | 99 | 1018.2 |
| 20260905065739 | 55 | 354 | 0.0 | 0.0 | 0.00 | 0.09 | 0.09 | 99 | 1018.2 |
| 20260905065233 | 55 | 322 | 0.0 | 0.0 | 0.00 | 0.09 | 0.09 | 99 | 1018.2 |
| 20260905064728 | 55 | 322 | 0.0 | 0.0 | 0.00 | 0.09 | 0.09 | 99 | 1018.1 |
| 20260905064224 | 54 | 322 | 0.0 | 0.0 | 0.00 | 0.09 | 0.09 | 99 | 1018.1 |
| 20260905063722 | 55 | 322 | 0.0 | 0.0 | 0.00 | 0.09 | 0.09 | 99 | 1018.0 |
| 20260905063218 | 55 | 322 | 0.0 | 0.0 | 0.00 | 0.09 | 0.09 | 99 | 1018.0 |
| 20260905062714 | 54 | 322 | 0.0 | 0.0 | 0.00 | 0.09 | 0.09 | 99 | 1017.9 |
| 20260905062213 | 54 | 322 | 0.0 | 0.0 | 0.00 | 0.09 | 0.09 | 99 | 1017.9 |
| 20260905061708 | 54 | 321 | 0.0 | 0.0 | 0.00 | 0.09 | 0.09 | 99 | 1017.9 |
| 20260905061202 | 55 | 322 | 0.0 | 0.0 | 0.00 | 0.09 | 0.09 | 99 | 1017.9 |
| 20260905060657 | 54 | 322 | 0.0 | 0.0 | 0.00 | 0.09 | 0.09 | 99 | 1018.1 |
| 20260905060154 | 54 | 322 | 0.0 | 0.0 | 0.00 | 0.09 | 0.09 | 99 | 1017.9 |
| 20260905055652 | 54 | 322 | 0.0 | 0.0 | 0.00 | 0.09 | 0.09 | 99 | 1017.9 |
| 20260905055148 | 54 | 322 | 0.0 | 0.0 | 0.00 | 0.09 | 0.09 | 99 | 1017.9 |
| 20260905054643 | 55 | 322 | 0.0 | 0.0 | 0.00 | 0.09 | 0.09 | 99 | 1017.9 |
| 20260905054139 | 55 | 322 | 0.0 | 0.0 | 0.00 | 0.09 | 0.09 | 99 | 1018.1 |
| 20260905053638 | 55 | 322 | 0.0 | 0.0 | 0.00 | 0.09 | 0.09 | 99 | 1018.1 |
| 20260905053134 | 55 | 322 | 0.0 | 0.0 | 0.00 | 0.09 | 0.09 | 99 | 1018.2 |
| 20260905052633 | 55 | 322 | 0.0 | 0.0 | 0.00 | 0.09 | 0.09 | 99 | 1018.0 |
| 20260905052128 | 55 | 322 | 0.0 | 0.0 | 0.00 | 0.09 | 0.09 | 99 | 1018.0 |
| 20260905051623 | 55 | 322 | 0.0 | 0.0 | 0.00 | 0.09 | 0.09 | 99 | 1018.2 |
| 20260905051120 | 55 | 318 | 0.0 | 0.0 | 0.00 | 0.09 | 0.09 | 99 | 1018.0 |
| 20260905050615 | 55 | 319 | 0.0 | 0.0 | 0.00 | 0.09 | 0.09 | 99 | 1018.0 |
| 20260905050107 | 55 | 305 | 0.0 | 0.0 | 0.00 | 0.09 | 0.09 | 99 | 1018.0 |
| 20260905045606 | 55 | 317 | 0.0 | 0.0 | 0.00 | 0.09 | 0.09 | 99 | 1018.3 |
| 20260905045102 | 55 | 254 | 1.0 | 1.0 | 0.00 | 0.09 | 0.09 | 99 | 1018.2 |
| 20260905044602 | 55 | 347 | 0.0 | 0.0 | 0.00 | 0.09 | 0.09 | 99 | 1018.1 |
| 20260905044056 | 55 | 336 | 0.0 | 0.0 | 0.00 | 0.09 | 0.09 | 99 | 1017.9 |
| 20260905043555 | 55 | 329 | 0.0 | 0.0 | 0.00 | 0.09 | 0.09 | 99 | 1018.3 |
| 20260905043051 | 55 | 302 | 0.0 | 0.0 | 0.00 | 0.09 | 0.09 | 99 | 1018.1 |
| 20260905042549 | 55 | 330 | 0.0 | 0.0 | 0.00 | 0.09 | 0.09 | 99 | 1018.0 |
| 20260905042045 | 55 | 331 | 0.0 | 0.0 | 0.00 | 0.09 | 0.09 | 99 | 1017.9 |
| 20260905041540 | 55 | 331 | 0.0 | 0.0 | 0.00 | 0.09 | 0.09 | 99 | 1017.9 |
| 20260905041036 | 55 | 331 | 0.0 | 0.0 | 0.00 | 0.09 | 0.09 | 99 | 1018.0 |
| 20260905040535 | 55 | 330 | 0.0 | 0.0 | 0.00 | 0.09 | 0.09 | 99 | 1017.8 |
| 20260905040034 | 55 | 331 | 0.0 | 0.0 | 0.00 | 0.09 | 0.09 | 99 | 1017.8 |
| 20260905035529 | 55 | 331 | 0.0 | 0.0 | 0.00 | 0.09 | 0.09 | 99 | 1017.8 |
| 20260905035026 | 55 | 330 | 0.0 | 0.0 | 0.00 | 0.09 | 0.09 | 99 | 1017.7 |
| 20260905034522 | 55 | 352 | 0.0 | 0.0 | 0.00 | 0.09 | 0.09 | 99 | 1017.8 |
| 20260905034021 | 56 | 352 | 0.0 | 0.0 | 0.00 | 0.09 | 0.09 | 99 | 1017.7 |
| 20260905033521 | 56 | 352 | 0.0 | 0.0 | 0.00 | 0.09 | 0.09 | 99 | 1017.8 |
| 20260905033017 | 56 | 352 | 0.0 | 0.0 | 0.00 | 0.09 | 0.09 | 99 | 1017.6 |
| 20260905032512 | 56 | 2 | 0.0 | 0.0 | 0.00 | 0.09 | 0.09 | 99 | 1017.5 |
| 20260905032007 | 56 | 349 | 0.0 | 0.0 | 0.00 | 0.09 | 0.09 | 99 | 1017.4 |
| 20260905031503 | 57 | 353 | 0.0 | 0.0 | 0.00 | 0.09 | 0.09 | 99 | 1017.3 |
| 20260905030957 | 57 | 329 | 0.0 | 0.0 | 0.00 | 0.09 | 0.09 | 99 | 1017.2 |
| 20260905030453 | 57 | 329 | 0.0 | 0.0 | 0.00 | 0.09 | 0.09 | 99 | 1017.2 |
| 20260905025951 | 57 | 329 | 0.0 | 0.0 | 0.00 | 0.09 | 0.09 | 99 | 1017.2 |
| 20260905025447 | 57 | 330 | 0.0 | 0.0 | 0.00 | 0.09 | 0.09 | 99 | 1017.1 |
| 20260905024943 | 57 | 329 | 0.0 | 0.0 | 0.00 | 0.09 | 0.09 | 99 | 1017.1 |
| 20260905024443 | 58 | 353 | 0.0 | 0.0 | 0.00 | 0.09 | 0.09 | 99 | 1016.9 |
| 20260905023939 | 58 | 336 | 0.0 | 0.0 | 0.00 | 0.09 | 0.09 | 99 | 1016.7 |
| 20260905023434 | 58 | 344 | 0.0 | 0.0 | 0.00 | 0.09 | 0.09 | 99 | 1016.8 |
| 20260905022933 | 59 | 6 | 0.0 | 0.0 | 0.00 | 0.09 | 0.09 | 99 | 1016.7 |
| 20260905022428 | 59 | 6 | 0.0 | 0.0 | 0.00 | 0.09 | 0.09 | 99 | 1016.8 |
| 20260905021924 | 59 | 6 | 0.0 | 0.0 | 0.00 | 0.09 | 0.09 | 99 | 1016.8 |
| 20260905021424 | 59 | 6 | 0.0 | 0.0 | 0.00 | 0.09 | 0.09 | 99 | 1016.8 |
| 20260905020919 | 59 | 359 | 0.0 | 0.0 | 0.00 | 0.09 | 0.09 | 99 | 1016.6 |
| 20260905020418 | 60 | 340 | 0.0 | 0.0 | 0.00 | 0.09 | 0.09 | 99 | 1016.8 |
| 20260905015913 | 60 | 342 | 0.0 | 0.0 | 0.00 | 0.09 | 0.09 | 99 | 1016.7 |
| 20260905015411 | 61 | 340 | 0.0 | 0.0 | 0.00 | 0.09 | 0.09 | 99 | 1016.6 |
| 20260905014910 | 61 | 337 | 0.0 | 0.0 | 0.00 | 0.09 | 0.09 | 99 | 1016.7 |
| 20260905014406 | 61 | 337 | 0.0 | 0.0 | 0.00 | 0.09 | 0.09 | 99 | 1016.7 |
| 20260905013901 | 61 | 338 | 0.0 | 0.0 | 0.00 | 0.09 | 0.09 | 98 | 1016.6 |
| 20260905013357 | 62 | 348 | 0.0 | 0.0 | 0.00 | 0.09 | 0.09 | 98 | 1016.6 |
| 20260905012852 | 62 | 343 | 0.0 | 0.0 | 0.00 | 0.09 | 0.09 | 98 | 1016.5 |
| 20260905012347 | 62 | 343 | 0.0 | 0.0 | 0.00 | 0.09 | 0.09 | 98 | 1016.6 |
| 20260905011844 | 63 | 327 | 0.0 | 0.0 | 0.00 | 0.09 | 0.09 | 97 | 1016.4 |
| 20260905011339 | 63 | 338 | 0.0 | 0.0 | 0.00 | 0.09 | 0.09 | 96 | 1016.4 |
| 20260905010835 | 63 | 338 | 0.0 | 0.0 | 0.00 | 0.09 | 0.09 | 96 | 1016.2 |
| 20260905010330 | 63 | 339 | 0.0 | 0.0 | 0.00 | 0.09 | 0.09 | 94 | 1016.2 |
| 20260905005826 | 63 | 349 | 0.0 | 0.0 | 0.00 | 0.09 | 0.09 | 93 | 1016.3 |
| 20260905005321 | 63 | 348 | 0.0 | 0.0 | 0.00 | 0.09 | 0.09 | 95 | 1016.3 |
| 20260905004816 | 64 | 330 | 0.0 | 0.0 | 0.00 | 0.09 | 0.09 | 95 | 1016.2 |
| 20260905004311 | 64 | 351 | 0.0 | 0.0 | 0.00 | 0.09 | 0.09 | 92 | 1016.1 |
| 20260905003806 | 64 | 338 | 0.0 | 0.0 | 0.00 | 0.09 | 0.09 | 92 | 1016.0 |
| 20260905003302 | 64 | 335 | 1.0 | 1.0 | 0.00 | 0.09 | 0.09 | 89 | 1016.2 |
| 20260905002757 | 65 | 329 | 0.0 | 0.0 | 0.00 | 0.09 | 0.09 | 90 | 1015.8 |
| 20260905002257 | 65 | 334 | 2.0 | 2.0 | 0.00 | 0.09 | 0.09 | 87 | 1016.1 |
| 20260905001752 | 64 | 309 | 0.0 | 0.0 | 0.00 | 0.09 | 0.09 | 94 | 1016.0 |
| 20260905001252 | 64 | 324 | 0.0 | 0.0 | 0.00 | 0.09 | 0.09 | 97 | 1016.0 |
| 20260905000747 | 63 | 339 | 0.0 | 0.0 | 0.00 | 0.09 | 0.09 | 97 | 1015.9 |
| 20260905000243 | 63 | 353 | 1.0 | 1.0 | 0.00 | 0.09 | 0.09 | 97 | 1016.1 |
| 20260904235738 | 62 | 356 | 0.0 | 0.0 | 0.00 | 0.09 | 0.09 | 97 | 1016.2 |
| 20260904235232 | 62 | 351 | 1.0 | 1.0 | 0.00 | 0.09 | 0.09 | 98 | 1016.0 |
| 20260904234727 | 63 | 355 | 1.0 | 1.0 | 0.00 | 0.09 | 0.09 | 99 | 1015.9 |
| 20260904234222 | 63 | 350 | 0.0 | 0.0 | 0.00 | 0.09 | 0.09 | 99 | 1015.9 |
| 20260904233718 | 62 | 356 | 0.0 | 1.0 | 0.00 | 0.09 | 0.09 | 99 | 1015.9 |
| 20260904233214 | 62 | 354 | 1.0 | 1.0 | 0.00 | 0.09 | 0.09 | 99 | 1015.8 |
| 20260904232711 | 62 | 354 | 0.0 | 1.0 | 0.00 | 0.09 | 0.09 | 99 | 1015.9 |
| 20260904232207 | 63 | 1 | 0.0 | 0.0 | 0.00 | 0.09 | 0.09 | 99 | 1016.0 |
| 20260904231702 | 63 | 356 | 1.0 | 2.0 | 0.00 | 0.09 | 0.09 | 99 | 1015.8 |
| 20260904231157 | 63 | 353 | 0.0 | 0.0 | 0.00 | 0.09 | 0.09 | 99 | 1015.8 |
| 20260904230656 | 63 | 8 | 1.0 | 1.0 | 0.00 | 0.09 | 0.09 | 99 | 1015.7 |
| 20260904230151 | 63 | 350 | 0.0 | 0.0 | 0.00 | 0.09 | 0.09 | 99 | 1015.7 |
| 20260904225650 | 63 | 350 | 0.0 | 0.0 | 0.00 | 0.09 | 0.09 | 99 | 1015.8 |
| 20260904225145 | 63 | 350 | 0.0 | 0.0 | 0.00 | 0.09 | 0.09 | 98 | 1016.0 |
| 20260904224639 | 63 | 335 | 0.0 | 1.0 | 0.00 | 0.09 | 0.09 | 98 | 1015.9 |
| 20260904224139 | 63 | 316 | 0.0 | 0.0 | 0.00 | 0.09 | 0.09 | 98 | 1015.9 |
| 20260904223633 | 63 | 316 | 0.0 | 0.0 | 0.00 | 0.09 | 0.09 | 99 | 1015.7 |
| 20260904223128 | 63 | 316 | 0.0 | 0.0 | 0.00 | 0.09 | 0.09 | 99 | 1015.5 |
| 20260904222625 | 62 | 315 | 0.0 | 0.0 | 0.00 | 0.09 | 0.09 | 99 | 1015.7 |
| 20260904222120 | 62 | 327 | 0.0 | 0.0 | 0.00 | 0.09 | 0.09 | 99 | 1015.7 |
| 20260904221620 | 62 | 346 | 0.0 | 0.0 | 0.00 | 0.09 | 0.09 | 99 | 1015.5 |
| 20260904221119 | 61 | 344 | 0.0 | 0.0 | 0.07 | 0.09 | 0.09 | 98 | 1015.7 |
| 20260904220614 | 61 | 308 | 0.0 | 0.0 | 0.24 | 0.09 | 0.09 | 98 | 1015.6 |
| 20260904220110 | 61 | 338 | 0.0 | 0.0 | 0.45 | 0.07 | 0.07 | 96 | 1015.8 |
| 20260904215610 | 62 | 351 | 1.0 | 1.0 | 0.28 | 0.05 | 0.05 | 93 | 1015.8 |
| 20260904215106 | 67 | 46 | 3.0 | 3.0 | 0.00 | 0.00 | 0.00 | 77 | 1015.6 |
| 20260904214601 | 68 | 148 | 0.0 | 1.0 | 0.00 | 0.00 | 0.00 | 68 | 1015.5 |
| 20260904214056 | 69 | 301 | 0.0 | 1.0 | 0.00 | 0.00 | 0.00 | 65 | 1015.4 |
| 20260904213554 | 69 | 206 | 0.0 | 1.0 | 0.00 | 0.00 | 0.00 | 67 | 1015.2 |
| 20260904213051 | 71 | 311 | 1.0 | 1.0 | 0.00 | 0.00 | 0.00 | 62 | 1015.3 |
| 20260904212550 | 72 | 285 | 3.0 | 3.0 | 0.00 | 0.00 | 0.00 | 63 | 1015.1 |
| 20260904212046 | 70 | 231 | 3.0 | 5.0 | 0.00 | 0.00 | 0.00 | 62 | 1015.2 |
| 20260904211545 | 69 | 356 | 0.0 | 0.0 | 0.00 | 0.00 | 0.00 | 63 | 1015.4 |
| 20260904211041 | 70 | 268 | 3.0 | 5.0 | 0.00 | 0.00 | 0.00 | 64 | 1015.1 |
| 20260904210540 | 70 | 352 | 0.0 | 0.0 | 0.00 | 0.00 | 0.00 | 66 | 1015.3 |
| 20260904210036 | 70 | 355 | 1.0 | 2.0 | 0.00 | 0.00 | 0.00 | 65 | 1015.3 |
| 20260904205531 | 71 | 136 | 0.0 | 1.0 | 0.00 | 0.00 | 0.00 | 65 | 1014.9 |
| 20260904205028 | 71 | 303 | 1.0 | 2.0 | 0.00 | 0.00 | 0.00 | 64 | 1015.2 |
| 20260904204524 | 71 | 343 | 0.0 | 1.0 | 0.00 | 0.00 | 0.00 | 67 | 1014.9 |